This is the latest recevied weather packets stored in our database for station/object W4MLN-1. If no packets are shown the sender has not sent any weather packets the latest 10 day(s).
| Time | Temp. | Humidity | Pressure | Rain* | Wind** | Luminosity | Snow |
|---|---|---|---|---|---|---|---|
| 1777289231 | 8.33° C | 93% | 1022.3 hPa | 0 mm | - | 24 W/m² | - |
| 1777288931 | 8.33° C | 93% | 1022.3 hPa | 0 mm | - | 19 W/m² | - |
| 1777288631 | 8.33° C | 93% | 1022.3 hPa | 0 mm | - | 16 W/m² | - |
| 1777288331 | 8.33° C | 93% | 1022.2 hPa | 0 mm | - | 14 W/m² | - |
| 1777288029 | 8.33° C | 93% | 1022.2 hPa | 0 mm | - | 10 W/m² | - |
| 1777287730 | 8.89° C | 93% | 1022.1 hPa | 0 mm | - | 8 W/m² | - |
| 1777287429 | 8.89° C | 93% | 1022.1 hPa | 0 mm | - | 6 W/m² | - |
| 1777287130 | 8.89° C | 93% | 1021.9 hPa | 0 mm | - | 4 W/m² | - |
| 1777286830 | 8.89° C | 93% | 1022.1 hPa | 0 mm | - | 3 W/m² | - |
| 1777286517 | 8.89° C | 94% | 1021.8 hPa | 0 mm | - | 2 W/m² | - |
| 1777286217 | 8.89° C | 93% | 1021.8 hPa | 0 mm | - | 0 W/m² | - |
| 1777285917 | 8.89° C | 93% | 1021.7 hPa | 0 mm | - | 0 W/m² | - |
| 1777285617 | 8.89° C | 93% | 1021.6 hPa | 0 mm | - | 0 W/m² | - |
| 1777285317 | 8.89° C | 93% | 1021.6 hPa | 0 mm | - | 0 W/m² | - |
| 1777285017 | 8.89° C | 93% | 1021.6 hPa | 0 mm | - | 0 W/m² | - |
| 1777284717 | 8.89° C | 93% | 1021.6 hPa | 0 mm | - | 0 W/m² | - |
| 1777284417 | 8.89° C | 93% | 1021.4 hPa | 0 mm | - | 0 W/m² | - |
| 1777284103 | 8.89° C | 93% | 1021.4 hPa | 0 mm | - | 0 W/m² | - |
| 1777283803 | 8.89° C | 93% | 1021.4 hPa | 0 mm | - | 0 W/m² | - |
| 1777283487 | 9.44° C | 93% | 1021.3 hPa | 0 mm | - | 0 W/m² | - |
| 1777283188 | 8.89° C | 93% | 1021.3 hPa | 0 mm | - | 0 W/m² | - |
| 1777282888 | 8.89° C | 93% | 1021.3 hPa | 0 mm | - | 0 W/m² | - |
| 1777282573 | 9.44° C | 93% | 1021.3 hPa | 0 mm | - | 0 W/m² | - |
| 1777282273 | 9.44° C | 93% | 1021.2 hPa | 0 mm | - | 0 W/m² | - |
| 1777281974 | 9.44° C | 93% | 1021.1 hPa | 0 mm | - | 0 W/m² | - |
* Rain latest hour (hover to see other rain measurements)
** Current wind speed in m/s (hover to see current wind gust speed)